Year,Month,Day,Hour,Minute,Value (Times are PST for temperature in C)
2014,06,22,00,00,14.10
2014,06,22,00,01,14.10
2014,06,22,00,02,14.10
2014,06,22,00,03,14.10
2014,06,22,00,04,14.10
2014,06,22,00,05,14.00
2014,06,22,00,06,14.00
2014,06,22,00,07,14.00
2014,06,22,00,08,14.10
2014,06,22,00,09,14.10
2014,06,22,00,10,14.20
2014,06,22,00,11,14.20
2014,06,22,00,12,14.20
2014,06,22,00,13,14.20
2014,06,22,00,14,14.20
2014,06,22,00,15,14.20
2014,06,22,00,16,14.20
2014,06,22,00,17,14.10
2014,06,22,00,18,14.10
2014,06,22,00,19,14.10
2014,06,22,00,20,14.00
2014,06,22,00,21,14.00
2014,06,22,00,22,14.00
2014,06,22,00,23,14.00
2014,06,22,00,24,14.00
2014,06,22,00,25,14.00
2014,06,22,00,26,14.00
2014,06,22,00,27,14.00
2014,06,22,00,28,13.90
2014,06,22,00,29,13.90
2014,06,22,00,30,13.90
2014,06,22,00,31,13.90
2014,06,22,00,32,13.80
2014,06,22,00,33,13.80
2014,06,22,00,34,13.80
2014,06,22,00,35,13.80
2014,06,22,00,36,13.80
2014,06,22,00,37,13.80
2014,06,22,00,38,13.70
2014,06,22,00,39,13.70
2014,06,22,00,40,13.70
2014,06,22,00,41,13.70
2014,06,22,00,42,13.70
2014,06,22,00,43,13.70
2014,06,22,00,44,13.70
2014,06,22,00,45,13.70
2014,06,22,00,46,13.70
2014,06,22,00,47,13.70
2014,06,22,00,48,13.70
2014,06,22,00,49,13.70
2014,06,22,00,50,13.70
2014,06,22,00,51,13.70
2014,06,22,00,52,13.70
2014,06,22,00,53,13.70
2014,06,22,00,54,13.70
2014,06,22,00,55,13.70
2014,06,22,00,56,13.70
2014,06,22,00,57,13.70
2014,06,22,00,58,13.70
2014,06,22,00,59,13.70
2014,06,22,01,00,13.70
2014,06,22,01,01,13.70
2014,06,22,01,02,13.70
2014,06,22,01,03,13.70
2014,06,22,01,04,13.70
2014,06,22,01,05,13.60
2014,06,22,01,06,13.60
2014,06,22,01,07,13.60
2014,06,22,01,08,13.60
2014,06,22,01,09,13.60
2014,06,22,01,10,13.60
2014,06,22,01,11,13.70
2014,06,22,01,12,13.70
2014,06,22,01,13,13.60
2014,06,22,01,14,13.60
2014,06,22,01,15,13.60
2014,06,22,01,16,13.50
2014,06,22,01,17,13.40
2014,06,22,01,18,13.40
2014,06,22,01,19,13.30
2014,06,22,01,20,13.20
2014,06,22,01,21,13.10
2014,06,22,01,22,13.00
2014,06,22,01,23,12.90
2014,06,22,01,24,12.80
2014,06,22,01,25,12.80
2014,06,22,01,26,12.70
2014,06,22,01,27,12.60
2014,06,22,01,28,12.50
2014,06,22,01,29,12.50
2014,06,22,01,30,12.40
2014,06,22,01,31,12.40
2014,06,22,01,32,12.30
2014,06,22,01,33,12.30
2014,06,22,01,34,12.30
2014,06,22,01,35,12.30
2014,06,22,01,36,12.30
2014,06,22,01,37,12.20
2014,06,22,01,38,12.20
2014,06,22,01,39,12.20
2014,06,22,01,40,12.10
2014,06,22,01,41,12.10
2014,06,22,01,42,12.10
2014,06,22,01,43,12.00
2014,06,22,01,44,12.00
2014,06,22,01,45,11.90
2014,06,22,01,46,11.90
2014,06,22,01,47,11.80
2014,06,22,01,48,11.80
2014,06,22,01,49,11.80
2014,06,22,01,50,11.80
2014,06,22,01,51,11.80
2014,06,22,01,52,11.90
2014,06,22,01,53,11.90
2014,06,22,01,54,12.00
2014,06,22,01,55,12.00
2014,06,22,01,56,12.10
2014,06,22,01,57,12.20
2014,06,22,01,58,12.20
2014,06,22,01,59,12.30
2014,06,22,02,00,12.30
2014,06,22,02,01,12.30
2014,06,22,02,02,12.30
2014,06,22,02,03,12.30
2014,06,22,02,04,12.30
2014,06,22,02,05,12.30
2014,06,22,02,06,12.30
2014,06,22,02,07,12.30
2014,06,22,02,08,12.30
2014,06,22,02,09,12.30
2014,06,22,02,10,12.30
2014,06,22,02,11,12.30
2014,06,22,02,12,12.30
2014,06,22,02,13,12.30
2014,06,22,02,14,12.30
2014,06,22,02,15,12.20
2014,06,22,02,16,12.10
2014,06,22,02,17,12.00
2014,06,22,02,18,12.00
2014,06,22,02,19,12.00
2014,06,22,02,20,12.00
2014,06,22,02,21,12.00
2014,06,22,02,22,12.00
2014,06,22,02,23,12.00
2014,06,22,02,24,12.00
2014,06,22,02,25,12.00
2014,06,22,02,26,12.10
2014,06,22,02,27,12.10
2014,06,22,02,28,12.20
2014,06,22,02,29,12.20
2014,06,22,02,30,12.30
2014,06,22,02,31,12.30
2014,06,22,02,32,12.30
2014,06,22,02,33,12.30
2014,06,22,02,34,12.30
2014,06,22,02,35,12.30
2014,06,22,02,36,12.20
2014,06,22,02,37,12.20
2014,06,22,02,38,12.20
2014,06,22,02,39,12.10
2014,06,22,02,40,12.10
2014,06,22,02,41,12.10
2014,06,22,02,42,12.10
2014,06,22,02,43,12.10
2014,06,22,02,44,12.10
2014,06,22,02,45,12.10
2014,06,22,02,46,12.10
2014,06,22,02,47,12.10
2014,06,22,02,48,12.10
2014,06,22,02,49,12.10
2014,06,22,02,50,12.10
2014,06,22,02,51,12.10
2014,06,22,02,52,12.10
2014,06,22,02,53,12.10
2014,06,22,02,54,12.10
2014,06,22,02,55,12.00
2014,06,22,02,56,12.00
2014,06,22,02,57,12.00
2014,06,22,02,58,11.90
2014,06,22,02,59,11.90
2014,06,22,03,00,11.90
2014,06,22,03,01,11.90
2014,06,22,03,02,11.80
2014,06,22,03,03,11.80
2014,06,22,03,04,11.80
2014,06,22,03,05,11.80
2014,06,22,03,06,11.80
2014,06,22,03,07,11.80
2014,06,22,03,08,11.70
2014,06,22,03,09,11.70
2014,06,22,03,10,11.60
2014,06,22,03,11,11.60
2014,06,22,03,12,11.60
2014,06,22,03,13,11.60
2014,06,22,03,14,11.60
2014,06,22,03,15,11.60
2014,06,22,03,16,11.50
2014,06,22,03,17,11.40
2014,06,22,03,18,11.40
2014,06,22,03,19,11.40
2014,06,22,03,20,11.40
2014,06,22,03,21,11.40
2014,06,22,03,22,11.40
2014,06,22,03,23,11.30
2014,06,22,03,24,11.30
2014,06,22,03,25,11.30
2014,06,22,03,26,11.30
2014,06,22,03,27,11.30
2014,06,22,03,28,11.30
2014,06,22,03,29,11.20
2014,06,22,03,30,11.20
2014,06,22,03,31,11.20
2014,06,22,03,32,11.10
2014,06,22,03,33,11.10
2014,06,22,03,34,11.10
2014,06,22,03,35,11.00
2014,06,22,03,36,10.90
2014,06,22,03,37,10.90
2014,06,22,03,38,10.90
2014,06,22,03,39,10.80
2014,06,22,03,40,10.80
2014,06,22,03,41,10.70
2014,06,22,03,42,10.70
2014,06,22,03,43,10.60
2014,06,22,03,44,10.60
2014,06,22,03,45,10.60
2014,06,22,03,46,10.60
2014,06,22,03,47,10.60
2014,06,22,03,48,10.60
2014,06,22,03,49,10.60
2014,06,22,03,50,10.60
2014,06,22,03,51,10.70
2014,06,22,03,52,10.70
2014,06,22,03,53,10.70
2014,06,22,03,54,10.70
2014,06,22,03,55,10.70
2014,06,22,03,56,10.70
2014,06,22,03,57,10.70
2014,06,22,03,58,10.60
2014,06,22,03,59,10.60
2014,06,22,04,00,10.60
2014,06,22,04,01,10.60
2014,06,22,04,02,10.60
2014,06,22,04,03,10.70
2014,06,22,04,04,10.70
2014,06,22,04,05,10.80
2014,06,22,04,06,10.80
2014,06,22,04,07,10.90
2014,06,22,04,08,10.90
2014,06,22,04,09,10.90
2014,06,22,04,10,10.90
2014,06,22,04,11,10.90
2014,06,22,04,12,10.90
2014,06,22,04,13,10.90
2014,06,22,04,14,11.00
2014,06,22,04,15,11.10
2014,06,22,04,16,11.10
2014,06,22,04,17,11.10
2014,06,22,04,18,11.10
2014,06,22,04,19,11.10
2014,06,22,04,20,11.20
2014,06,22,04,21,11.20
2014,06,22,04,22,11.20
2014,06,22,04,23,11.20
2014,06,22,04,24,11.20
2014,06,22,04,25,11.20
2014,06,22,04,26,11.20
2014,06,22,04,27,11.20
2014,06,22,04,28,11.20
2014,06,22,04,29,11.20
2014,06,22,04,30,11.20
2014,06,22,04,31,11.20
2014,06,22,04,32,11.20
2014,06,22,04,33,11.20
2014,06,22,04,34,11.20
2014,06,22,04,35,11.20
2014,06,22,04,36,11.10
2014,06,22,04,37,11.10
2014,06,22,04,38,11.10
2014,06,22,04,39,11.00
2014,06,22,04,40,10.90
2014,06,22,04,41,10.90
2014,06,22,04,42,10.90
2014,06,22,04,43,10.80
2014,06,22,04,44,10.80
2014,06,22,04,45,10.70
2014,06,22,04,46,10.70
2014,06,22,04,47,10.70
2014,06,22,04,48,10.70
2014,06,22,04,49,10.60
2014,06,22,04,50,10.60
2014,06,22,04,51,10.60
2014,06,22,04,52,10.60
2014,06,22,04,53,10.60
2014,06,22,04,54,10.60
2014,06,22,04,55,10.50
2014,06,22,04,56,10.40
2014,06,22,04,57,10.40
2014,06,22,04,58,10.40
2014,06,22,04,59,10.40
2014,06,22,05,00,10.40
2014,06,22,05,01,10.40
2014,06,22,05,02,10.40
2014,06,22,05,03,10.40
2014,06,22,05,04,10.40
2014,06,22,05,05,10.40
2014,06,22,05,06,10.40
2014,06,22,05,07,10.40
2014,06,22,05,08,10.30
2014,06,22,05,09,10.30
2014,06,22,05,10,10.20
2014,06,22,05,11,10.20
2014,06,22,05,12,10.20
2014,06,22,05,13,10.10
2014,06,22,05,14,10.10
2014,06,22,05,15,10.10
2014,06,22,05,16,10.10
2014,06,22,05,17,10.10
2014,06,22,05,18,10.20
2014,06,22,05,19,10.20
2014,06,22,05,20,10.20
2014,06,22,05,21,10.20
2014,06,22,05,22,10.30
2014,06,22,05,23,10.30
2014,06,22,05,24,10.30
2014,06,22,05,25,10.30
2014,06,22,05,26,10.30
2014,06,22,05,27,10.40
2014,06,22,05,28,10.40
2014,06,22,05,29,10.40
2014,06,22,05,30,10.40
2014,06,22,05,31,10.40
2014,06,22,05,32,10.40
2014,06,22,05,33,10.40
2014,06,22,05,34,10.50
2014,06,22,05,35,10.60
2014,06,22,05,36,10.60
2014,06,22,05,37,10.60
2014,06,22,05,38,10.60
2014,06,22,05,39,10.60
2014,06,22,05,40,10.60
2014,06,22,05,41,10.60
2014,06,22,05,42,10.60
2014,06,22,05,43,10.60
2014,06,22,05,44,10.60
2014,06,22,05,45,10.60
2014,06,22,05,46,10.60
2014,06,22,05,47,10.50
2014,06,22,05,48,10.40
2014,06,22,05,49,10.40
2014,06,22,05,50,10.40
2014,06,22,05,51,10.40
2014,06,22,05,52,10.40
2014,06,22,05,53,10.40
2014,06,22,05,54,10.40
2014,06,22,05,55,10.40
2014,06,22,05,56,10.40
2014,06,22,05,57,10.50
2014,06,22,05,58,10.60
2014,06,22,05,59,10.60
2014,06,22,06,00,10.60
2014,06,22,06,01,10.60
2014,06,22,06,02,10.70
2014,06,22,06,03,10.70
2014,06,22,06,04,10.80
2014,06,22,06,05,10.80
2014,06,22,06,06,10.90
2014,06,22,06,07,10.90
2014,06,22,06,08,10.90
2014,06,22,06,09,10.90
2014,06,22,06,10,11.10
2014,06,22,06,11,11.10
2014,06,22,06,12,11.10
2014,06,22,06,13,11.10
2014,06,22,06,14,11.20
2014,06,22,06,15,11.20
2014,06,22,06,16,11.30
2014,06,22,06,17,11.40
2014,06,22,06,18,11.40
2014,06,22,06,19,11.40
2014,06,22,06,20,11.40
2014,06,22,06,21,11.50
2014,06,22,06,22,11.60
2014,06,22,06,23,11.60
2014,06,22,06,24,11.60
2014,06,22,06,25,11.60
2014,06,22,06,26,11.70
2014,06,22,06,27,11.70
2014,06,22,06,28,11.80
2014,06,22,06,29,11.80
2014,06,22,06,30,11.80
2014,06,22,06,31,11.90
2014,06,22,06,32,12.00
2014,06,22,06,33,12.10
2014,06,22,06,34,12.10
2014,06,22,06,35,12.20
2014,06,22,06,36,12.20
2014,06,22,06,37,12.20
2014,06,22,06,38,12.30
2014,06,22,06,39,12.30
2014,06,22,06,40,12.40
2014,06,22,06,41,12.50
2014,06,22,06,42,12.50
2014,06,22,06,43,12.60
2014,06,22,06,44,12.70
2014,06,22,06,45,12.80
2014,06,22,06,46,12.90
2014,06,22,06,47,13.00
2014,06,22,06,48,13.10
2014,06,22,06,49,13.20
2014,06,22,06,50,13.30
2014,06,22,06,51,13.30
2014,06,22,06,52,13.40
2014,06,22,06,53,13.50
2014,06,22,06,54,13.60
2014,06,22,06,55,13.70
2014,06,22,06,56,13.70
2014,06,22,06,57,13.80
2014,06,22,06,58,13.90
2014,06,22,06,59,14.00
2014,06,22,07,00,14.10
2014,06,22,07,01,14.20
2014,06,22,07,02,14.20
2014,06,22,07,03,14.20
2014,06,22,07,04,14.30
2014,06,22,07,05,14.40
2014,06,22,07,06,14.50
2014,06,22,07,07,14.60
2014,06,22,07,08,14.60
2014,06,22,07,09,14.70
2014,06,22,07,10,14.80
2014,06,22,07,11,14.80
2014,06,22,07,12,14.80
2014,06,22,07,13,14.80
2014,06,22,07,14,14.90
2014,06,22,07,15,15.00
2014,06,22,07,16,15.00
2014,06,22,07,17,15.10
2014,06,22,07,18,15.10
2014,06,22,07,19,15.10
2014,06,22,07,20,15.20
2014,06,22,07,21,15.20
2014,06,22,07,22,15.20
2014,06,22,07,23,15.20
2014,06,22,07,24,15.10
2014,06,22,07,25,15.10
2014,06,22,07,26,15.10
2014,06,22,07,27,15.10
2014,06,22,07,28,15.20
2014,06,22,07,29,15.30
2014,06,22,07,30,15.40
2014,06,22,07,31,15.50
2014,06,22,07,32,15.60
2014,06,22,07,33,15.70
2014,06,22,07,34,15.80
2014,06,22,07,35,15.80
2014,06,22,07,36,15.90
2014,06,22,07,37,15.90
2014,06,22,07,38,16.00
2014,06,22,07,39,16.10
2014,06,22,07,40,16.10
2014,06,22,07,41,16.10
2014,06,22,07,42,16.10
2014,06,22,07,43,16.20
2014,06,22,07,44,16.20
2014,06,22,07,45,16.20
2014,06,22,07,46,16.20
2014,06,22,07,47,16.20
2014,06,22,07,48,16.20
2014,06,22,07,49,16.10
2014,06,22,07,50,16.00
2014,06,22,07,51,15.90
2014,06,22,07,52,15.90
2014,06,22,07,53,15.80
2014,06,22,07,54,15.80
2014,06,22,07,55,15.80
2014,06,22,07,56,15.70
2014,06,22,07,57,15.60
2014,06,22,07,58,15.60
2014,06,22,07,59,15.50
2014,06,22,08,00,15.40
2014,06,22,08,01,15.30
2014,06,22,08,02,15.20
2014,06,22,08,03,15.10
2014,06,22,08,04,15.00
2014,06,22,08,05,15.00
2014,06,22,08,06,14.90
2014,06,22,08,07,14.90
2014,06,22,08,08,14.90
2014,06,22,08,09,14.90
2014,06,22,08,10,15.00
2014,06,22,08,11,15.10
2014,06,22,08,12,15.10
2014,06,22,08,13,15.20
2014,06,22,08,14,15.20
2014,06,22,08,15,15.30
2014,06,22,08,16,15.30
2014,06,22,08,17,15.30
2014,06,22,08,18,15.30
2014,06,22,08,19,15.40
2014,06,22,08,20,15.40
2014,06,22,08,21,15.40
2014,06,22,08,22,15.30
2014,06,22,08,23,15.20
2014,06,22,08,24,15.10
2014,06,22,08,25,15.00
2014,06,22,08,26,14.80
2014,06,22,08,27,14.70
2014,06,22,08,28,14.60
2014,06,22,08,29,14.50
2014,06,22,08,30,14.40
2014,06,22,08,31,14.20
2014,06,22,08,32,14.20
2014,06,22,08,33,14.00
2014,06,22,08,34,14.00
2014,06,22,08,35,13.90
2014,06,22,08,36,13.80
2014,06,22,08,37,13.70
2014,06,22,08,38,13.70
2014,06,22,08,39,13.70
2014,06,22,08,40,13.60
2014,06,22,08,41,13.60
2014,06,22,08,42,13.60
2014,06,22,08,43,13.60
2014,06,22,08,44,13.70
2014,06,22,08,45,13.70
2014,06,22,08,46,13.70
2014,06,22,08,47,13.80
2014,06,22,08,48,13.90
2014,06,22,08,49,13.90
2014,06,22,08,50,14.00
2014,06,22,08,51,14.10
2014,06,22,08,52,14.10
2014,06,22,08,53,14.20
2014,06,22,08,54,14.10
2014,06,22,08,55,14.10
2014,06,22,08,56,14.10
2014,06,22,08,57,14.20
2014,06,22,08,58,14.20
2014,06,22,08,59,14.20
2014,06,22,09,00,14.20
2014,06,22,09,01,14.30
2014,06,22,09,02,14.30
2014,06,22,09,03,14.40
2014,06,22,09,04,14.50
2014,06,22,09,05,14.60
2014,06,22,09,06,14.70
2014,06,22,09,07,14.90
2014,06,22,09,08,15.00
2014,06,22,09,09,15.20
2014,06,22,09,10,15.30
2014,06,22,09,11,15.50
2014,06,22,09,12,15.70
2014,06,22,09,13,15.80
2014,06,22,09,14,16.00
2014,06,22,09,15,16.10
2014,06,22,09,16,16.20
2014,06,22,09,17,16.30
2014,06,22,09,18,16.40
2014,06,22,09,19,16.40
2014,06,22,09,20,16.40
2014,06,22,09,21,16.30
2014,06,22,09,22,16.20
2014,06,22,09,23,16.00
2014,06,22,09,24,15.80
2014,06,22,09,25,15.70
2014,06,22,09,26,15.60
2014,06,22,09,27,15.50
2014,06,22,09,28,15.40
2014,06,22,09,29,15.40
2014,06,22,09,30,15.50
2014,06,22,09,31,15.50
2014,06,22,09,32,15.60
2014,06,22,09,33,15.60
2014,06,22,09,34,15.60
2014,06,22,09,35,15.60
2014,06,22,09,36,15.70
2014,06,22,09,37,15.70
2014,06,22,09,38,15.80
2014,06,22,09,39,15.90
2014,06,22,09,40,16.10
2014,06,22,09,41,16.20
2014,06,22,09,42,16.20
2014,06,22,09,43,16.30
2014,06,22,09,44,16.30
2014,06,22,09,45,16.40
2014,06,22,09,46,16.40
2014,06,22,09,47,16.60
2014,06,22,09,48,16.60
2014,06,22,09,49,16.70
2014,06,22,09,50,16.70
2014,06,22,09,51,16.70
2014,06,22,09,52,16.70
2014,06,22,09,53,16.70
2014,06,22,09,54,16.70
2014,06,22,09,55,16.70
2014,06,22,09,56,16.60
2014,06,22,09,57,16.60
2014,06,22,09,58,16.60
2014,06,22,09,59,16.50
2014,06,22,10,00,16.40
2014,06,22,10,01,16.40
2014,06,22,10,02,16.20
2014,06,22,10,03,16.10
2014,06,22,10,04,16.00
2014,06,22,10,05,15.80
2014,06,22,10,06,15.80
2014,06,22,10,07,15.60
2014,06,22,10,08,15.60
2014,06,22,10,09,15.50
2014,06,22,10,10,15.40
2014,06,22,10,11,15.30
2014,06,22,10,12,15.20
2014,06,22,10,13,15.10
2014,06,22,10,14,15.00
2014,06,22,10,15,14.90
2014,06,22,10,16,14.80
2014,06,22,10,17,14.80
2014,06,22,10,18,14.70
2014,06,22,10,19,14.70
2014,06,22,10,20,14.60
2014,06,22,10,21,14.60
2014,06,22,10,22,14.60
2014,06,22,10,23,14.60
2014,06,22,10,24,14.70
2014,06,22,10,25,14.70
2014,06,22,10,26,14.80
2014,06,22,10,27,14.90
2014,06,22,10,28,14.90
2014,06,22,10,29,14.90
2014,06,22,10,30,14.90
2014,06,22,10,31,14.80
2014,06,22,10,32,14.70
2014,06,22,10,33,14.70
2014,06,22,10,34,14.70
2014,06,22,10,35,14.60
2014,06,22,10,36,14.60
2014,06,22,10,37,14.50
2014,06,22,10,38,14.50
2014,06,22,10,39,14.60
2014,06,22,10,40,14.60
2014,06,22,10,41,14.60
2014,06,22,10,42,14.60
2014,06,22,10,43,14.70
2014,06,22,10,44,14.70
2014,06,22,10,45,14.70
2014,06,22,10,46,14.80
2014,06,22,10,47,14.80
2014,06,22,10,48,14.80
2014,06,22,10,49,14.80
2014,06,22,10,50,14.70
2014,06,22,10,51,14.70
2014,06,22,10,52,14.70
2014,06,22,10,53,14.60
2014,06,22,10,54,14.60
2014,06,22,10,55,14.50
2014,06,22,10,56,14.50
2014,06,22,10,57,14.40
2014,06,22,10,58,14.50
2014,06,22,10,59,14.50
2014,06,22,11,00,14.50
2014,06,22,11,01,14.50
2014,06,22,11,02,14.50
2014,06,22,11,03,14.50
2014,06,22,11,04,14.40
2014,06,22,11,05,14.30
2014,06,22,11,06,14.20
2014,06,22,11,07,14.20
2014,06,22,11,08,14.20
2014,06,22,11,09,14.20
2014,06,22,11,10,14.20
2014,06,22,11,11,14.20
2014,06,22,11,12,14.30
2014,06,22,11,13,14.40
2014,06,22,11,14,14.40
2014,06,22,11,15,14.50
2014,06,22,11,16,14.60
2014,06,22,11,17,14.60
2014,06,22,11,18,14.70
2014,06,22,11,19,14.70
2014,06,22,11,20,14.80
2014,06,22,11,21,14.80
2014,06,22,11,22,14.90
2014,06,22,11,23,15.00
2014,06,22,11,24,15.00
2014,06,22,11,25,15.00
2014,06,22,11,26,14.90
2014,06,22,11,27,14.90
2014,06,22,11,28,14.90
2014,06,22,11,29,14.90
2014,06,22,11,30,14.80
2014,06,22,11,31,14.80
2014,06,22,11,32,14.90
2014,06,22,11,33,15.00
2014,06,22,11,34,15.10
2014,06,22,11,35,15.10
2014,06,22,11,36,15.20
2014,06,22,11,37,15.20
2014,06,22,11,38,15.30
2014,06,22,11,39,15.30
2014,06,22,11,40,15.40
2014,06,22,11,41,15.50
2014,06,22,11,42,15.70
2014,06,22,11,43,15.80
2014,06,22,11,44,15.90
2014,06,22,11,45,16.00
2014,06,22,11,46,16.10
2014,06,22,11,47,16.10
2014,06,22,11,48,16.20
2014,06,22,11,49,16.20
2014,06,22,11,50,16.30
2014,06,22,11,51,16.40
2014,06,22,11,52,16.40
2014,06,22,11,53,16.40
2014,06,22,11,54,16.30
2014,06,22,11,55,16.30
2014,06,22,11,56,16.30
2014,06,22,11,57,16.30
2014,06,22,11,58,16.30
2014,06,22,11,59,16.40
2014,06,22,12,00,16.40
2014,06,22,12,01,16.40
2014,06,22,12,02,16.60
2014,06,22,12,03,16.80
2014,06,22,12,04,17.00
2014,06,22,12,05,17.00
2014,06,22,12,06,17.00
2014,06,22,12,07,17.10
2014,06,22,12,08,17.20
2014,06,22,12,09,17.40
2014,06,22,12,10,17.50
2014,06,22,12,11,17.60
2014,06,22,12,12,17.70
2014,06,22,12,13,17.60
2014,06,22,12,14,17.50
2014,06,22,12,15,17.60
2014,06,22,12,16,17.60
2014,06,22,12,17,17.60
2014,06,22,12,18,17.60
2014,06,22,12,19,17.50
2014,06,22,12,20,17.50
2014,06,22,12,21,17.40
2014,06,22,12,22,17.30
2014,06,22,12,23,17.30
2014,06,22,12,24,17.30
2014,06,22,12,25,17.30
2014,06,22,12,26,17.20
2014,06,22,12,27,17.20
2014,06,22,12,28,17.20
2014,06,22,12,29,17.20
2014,06,22,12,30,17.30
2014,06,22,12,31,17.30
2014,06,22,12,32,17.40
2014,06,22,12,33,17.40
2014,06,22,12,34,17.50
2014,06,22,12,35,17.60
2014,06,22,12,36,17.60
2014,06,22,12,37,17.60
2014,06,22,12,38,17.50
2014,06,22,12,39,17.40
2014,06,22,12,40,17.30
2014,06,22,12,41,17.20
2014,06,22,12,42,17.20
2014,06,22,12,43,17.20
2014,06,22,12,44,17.20
2014,06,22,12,45,17.20
2014,06,22,12,46,17.10
2014,06,22,12,47,17.00
2014,06,22,12,48,16.90
2014,06,22,12,49,16.80
2014,06,22,12,50,16.80
2014,06,22,12,51,16.80
2014,06,22,12,52,16.90
2014,06,22,12,53,16.90
2014,06,22,12,54,17.00
2014,06,22,12,55,17.10
2014,06,22,12,56,17.20
2014,06,22,12,57,17.10
2014,06,22,12,58,17.10
2014,06,22,12,59,17.00
2014,06,22,13,00,17.00
2014,06,22,13,01,17.10
2014,06,22,13,02,17.20
2014,06,22,13,03,17.30
2014,06,22,13,04,17.50
2014,06,22,13,05,17.70
2014,06,22,13,06,17.70
2014,06,22,13,07,17.60
2014,06,22,13,08,17.50
2014,06,22,13,09,17.40
2014,06,22,13,10,17.40
2014,06,22,13,11,17.40
2014,06,22,13,12,17.30
2014,06,22,13,13,17.30
2014,06,22,13,14,17.40
2014,06,22,13,15,17.50
2014,06,22,13,16,17.50
2014,06,22,13,17,17.40
2014,06,22,13,18,17.40
2014,06,22,13,19,17.40
2014,06,22,13,20,17.40
2014,06,22,13,21,17.40
2014,06,22,13,22,17.30
2014,06,22,13,23,17.30
2014,06,22,13,24,17.30
2014,06,22,13,25,17.20
2014,06,22,13,26,17.30
2014,06,22,13,27,17.30
2014,06,22,13,28,17.30
2014,06,22,13,29,17.30
2014,06,22,13,30,17.30
2014,06,22,13,31,17.30
2014,06,22,13,32,17.30
2014,06,22,13,33,17.30
2014,06,22,13,34,17.20
2014,06,22,13,35,17.20
2014,06,22,13,36,17.10
2014,06,22,13,37,17.20
2014,06,22,13,38,17.30
2014,06,22,13,39,17.30
2014,06,22,13,40,17.40
2014,06,22,13,41,17.40
2014,06,22,13,42,17.40
2014,06,22,13,43,17.50
2014,06,22,13,44,17.50
2014,06,22,13,45,17.60
2014,06,22,13,46,17.70
2014,06,22,13,47,17.70
2014,06,22,13,48,17.70
2014,06,22,13,49,17.80
2014,06,22,13,50,17.70
2014,06,22,13,51,17.80
2014,06,22,13,52,17.80
2014,06,22,13,53,17.90
2014,06,22,13,54,17.90
2014,06,22,13,55,17.80
2014,06,22,13,56,17.70
2014,06,22,13,57,17.60
2014,06,22,13,58,17.50
2014,06,22,13,59,17.40
2014,06,22,14,00,17.40
2014,06,22,14,01,17.40
2014,06,22,14,02,17.40
2014,06,22,14,03,17.40
2014,06,22,14,04,17.60
2014,06,22,14,05,17.70
2014,06,22,14,06,17.70
2014,06,22,14,07,17.70
2014,06,22,14,08,17.70
2014,06,22,14,09,17.70
2014,06,22,14,10,17.80
2014,06,22,14,11,18.00
2014,06,22,14,12,18.10
2014,06,22,14,13,18.00
2014,06,22,14,14,17.90
2014,06,22,14,15,18.00
2014,06,22,14,16,18.10
2014,06,22,14,17,18.20
2014,06,22,14,18,18.30
2014,06,22,14,19,18.30
2014,06,22,14,20,18.30
2014,06,22,14,21,18.30
2014,06,22,14,22,18.20
2014,06,22,14,23,18.20
2014,06,22,14,24,18.30
2014,06,22,14,25,18.40
2014,06,22,14,26,18.60
2014,06,22,14,27,18.60
2014,06,22,14,28,18.60
2014,06,22,14,29,18.60
2014,06,22,14,30,18.60
2014,06,22,14,31,18.50
2014,06,22,14,32,18.50
2014,06,22,14,33,18.50
2014,06,22,14,34,18.40
2014,06,22,14,35,18.40
2014,06,22,14,36,18.30
2014,06,22,14,37,18.20
2014,06,22,14,38,18.20
2014,06,22,14,39,18.20
2014,06,22,14,40,18.20
2014,06,22,14,41,18.30
2014,06,22,14,42,18.30
2014,06,22,14,43,18.30
2014,06,22,14,44,18.20
2014,06,22,14,45,18.20
2014,06,22,14,46,18.10
2014,06,22,14,47,18.00
2014,06,22,14,48,18.00
2014,06,22,14,49,18.10
2014,06,22,14,50,18.10
2014,06,22,14,51,18.10
2014,06,22,14,52,18.10
2014,06,22,14,53,18.20
2014,06,22,14,54,18.20
2014,06,22,14,55,18.30
2014,06,22,14,56,18.40
2014,06,22,14,57,18.40
2014,06,22,14,58,18.40
2014,06,22,14,59,18.40
2014,06,22,15,00,18.50
2014,06,22,15,01,18.50
2014,06,22,15,02,18.60
2014,06,22,15,03,18.60
2014,06,22,15,04,18.60
2014,06,22,15,05,18.70
2014,06,22,15,06,18.70
2014,06,22,15,07,18.70
2014,06,22,15,08,18.70
2014,06,22,15,09,18.70
2014,06,22,15,10,18.60
2014,06,22,15,11,18.60
2014,06,22,15,12,18.70
2014,06,22,15,13,18.90
2014,06,22,15,14,18.90
2014,06,22,15,15,19.00
2014,06,22,15,16,19.10
2014,06,22,15,17,19.10
2014,06,22,15,18,19.10
2014,06,22,15,19,19.10
2014,06,22,15,20,19.10
2014,06,22,15,21,19.10
2014,06,22,15,22,19.10
2014,06,22,15,23,19.10
2014,06,22,15,24,19.10
2014,06,22,15,25,19.20
2014,06,22,15,26,19.30
2014,06,22,15,27,19.30
2014,06,22,15,28,19.30
2014,06,22,15,29,19.30
2014,06,22,15,30,19.40
2014,06,22,15,31,19.40
2014,06,22,15,32,19.50
2014,06,22,15,33,19.50
2014,06,22,15,34,19.60
2014,06,22,15,35,19.70
2014,06,22,15,36,19.70
2014,06,22,15,37,19.70
2014,06,22,15,38,19.70
2014,06,22,15,39,19.60
2014,06,22,15,40,19.60
2014,06,22,15,41,19.50
2014,06,22,15,42,19.40
2014,06,22,15,43,19.40
2014,06,22,15,44,19.40
2014,06,22,15,45,19.40
2014,06,22,15,46,19.40
2014,06,22,15,47,19.40
2014,06,22,15,48,19.40
2014,06,22,15,49,19.40
2014,06,22,15,50,19.40
2014,06,22,15,51,19.40
2014,06,22,15,52,19.40
2014,06,22,15,53,19.40
2014,06,22,15,54,19.50
2014,06,22,15,55,19.60
2014,06,22,15,56,19.70
2014,06,22,15,57,19.80
2014,06,22,15,58,19.80
2014,06,22,15,59,19.90
2014,06,22,16,00,19.90
2014,06,22,16,01,20.00
2014,06,22,16,02,20.10
2014,06,22,16,03,20.10
2014,06,22,16,04,20.00
2014,06,22,16,05,19.90
2014,06,22,16,06,19.90
2014,06,22,16,07,19.90
2014,06,22,16,08,19.90
2014,06,22,16,09,19.80
2014,06,22,16,10,19.80
2014,06,22,16,11,19.70
2014,06,22,16,12,19.70
2014,06,22,16,13,19.70
2014,06,22,16,14,19.70
2014,06,22,16,15,19.80
2014,06,22,16,16,19.90
2014,06,22,16,17,19.90
2014,06,22,16,18,20.00
2014,06,22,16,19,20.10
2014,06,22,16,20,20.10
2014,06,22,16,21,20.10
2014,06,22,16,22,20.10
2014,06,22,16,23,20.00
2014,06,22,16,24,19.90
2014,06,22,16,25,19.90
2014,06,22,16,26,19.90
2014,06,22,16,27,19.90
2014,06,22,16,28,19.90
2014,06,22,16,29,19.90
2014,06,22,16,30,19.80
2014,06,22,16,31,19.80
2014,06,22,16,32,19.80
2014,06,22,16,33,19.80
2014,06,22,16,34,19.80
2014,06,22,16,35,19.90
2014,06,22,16,36,20.00
2014,06,22,16,37,20.10
2014,06,22,16,38,20.20
2014,06,22,16,39,20.20
2014,06,22,16,40,20.20
2014,06,22,16,41,20.20
2014,06,22,16,42,20.20
2014,06,22,16,43,20.20
2014,06,22,16,44,20.20
2014,06,22,16,45,20.20
2014,06,22,16,46,20.30
2014,06,22,16,47,20.40
2014,06,22,16,48,20.40
2014,06,22,16,49,20.40
2014,06,22,16,50,20.40
2014,06,22,16,51,20.40
2014,06,22,16,52,20.30
2014,06,22,16,53,20.20
2014,06,22,16,54,20.20
2014,06,22,16,55,20.20
2014,06,22,16,56,20.20
2014,06,22,16,57,20.20
2014,06,22,16,58,20.20
2014,06,22,16,59,20.20
2014,06,22,17,00,20.30
2014,06,22,17,01,20.30
2014,06,22,17,02,20.30
2014,06,22,17,03,20.30
2014,06,22,17,04,20.20
2014,06,22,17,05,20.20
2014,06,22,17,06,20.20
2014,06,22,17,07,20.20
2014,06,22,17,08,20.20
2014,06,22,17,09,20.10
2014,06,22,17,10,20.10
2014,06,22,17,11,20.20
2014,06,22,17,12,20.20
2014,06,22,17,13,20.10
2014,06,22,17,14,20.10
2014,06,22,17,15,20.10
2014,06,22,17,16,20.10
2014,06,22,17,17,20.20
2014,06,22,17,18,20.20
2014,06,22,17,19,20.20